TimeCST,TemperatureF,Dew PointF,Humidity,Sea Level PressureIn,VisibilityMPH,Wind Direction,Wind SpeedMPH,Gust SpeedMPH,PrecipitationIn,Events,Conditions,WindDirDegrees,DateUTC
12:15 AM,32.7,30.0,90,30.34,10.0,WSW,3.5,-,N/A,,Clear,250,2013-11-08 06:15:00
12:35 AM,31.8,29.5,91,30.34,10.0,West,3.5,-,N/A,,Clear,260,2013-11-08 06:35:00
12:55 AM,31.3,28.9,91,30.34,10.0,WSW,3.5,-,N/A,,Clear,250,2013-11-08 06:55:00
1:15 AM,30.6,28.8,93,30.34,10.0,WSW,3.5,-,N/A,,Clear,250,2013-11-08 07:15:00
1:35 AM,29.5,28.0,94,30.34,10.0,Calm,Calm,-,N/A,,Clear,0,2013-11-08 07:35:00
1:55 AM,29.5,27.7,93,30.34,10.0,Calm,Calm,-,N/A,,Clear,0,2013-11-08 07:55:00
2:15 AM,30.2,28.6,94,30.34,10.0,Calm,Calm,-,N/A,,Clear,0,2013-11-08 08:15:00
2:35 AM,30.4,28.4,92,30.34,10.0,Calm,Calm,-,N/A,,Clear,0,2013-11-08 08:35:00
2:55 AM,30.2,27.9,91,30.34,10.0,WSW,3.5,-,N/A,,Clear,250,2013-11-08 08:55:00
3:15 AM,29.1,27.5,94,30.34,10.0,Calm,Calm,-,N/A,,Clear,0,2013-11-08 09:15:00
3:35 AM,29.3,27.9,94,30.34,10.0,Calm,Calm,-,N/A,,Clear,0,2013-11-08 09:35:00
3:55 AM,28.4,26.6,93,30.34,10.0,Calm,Calm,-,N/A,,Clear,0,2013-11-08 09:55:00
4:15 AM,28.0,26.8,95,30.34,10.0,Calm,Calm,-,N/A,,Clear,0,2013-11-08 10:15:00
4:35 AM,28.9,27.3,94,30.35,10.0,Calm,Calm,-,N/A,,Clear,0,2013-11-08 10:35:00
4:55 AM,28.2,26.8,94,30.34,10.0,Calm,Calm,-,N/A,,Clear,0,2013-11-08 10:55:00
5:15 AM,28.6,27.3,95,30.34,10.0,Calm,Calm,-,N/A,,Clear,0,2013-11-08 11:15:00
5:35 AM,28.0,27.0,96,30.34,10.0,SSE,3.5,-,N/A,,Clear,160,2013-11-08 11:35:00
5:55 AM,29.5,27.7,93,30.34,10.0,SSE,3.5,-,N/A,,Clear,160,2013-11-08 11:55:00
6:15 AM,28.0,26.1,92,30.33,10.0,Calm,Calm,-,N/A,,Clear,0,2013-11-08 12:15:00
6:35 AM,29.5,27.9,94,30.33,10.0,ESE,3.5,-,N/A,,Clear,120,2013-11-08 12:35:00
6:55 AM,28.4,26.6,93,30.34,10.0,SSW,3.5,-,N/A,,Clear,210,2013-11-08 12:55:00
7:15 AM,30.2,27.9,91,30.35,10.0,South,3.5,-,N/A,,Clear,190,2013-11-08 13:15:00
7:35 AM,32.0,30.0,92,30.35,10.0,South,3.5,-,N/A,,Clear,180,2013-11-08 13:35:00
7:55 AM,34.9,31.8,89,30.36,10.0,South,4.6,-,N/A,,Clear,170,2013-11-08 13:55:00
8:15 AM,37.0,32.0,82,30.36,10.0,SSE,3.5,-,N/A,,Clear,160,2013-11-08 14:15:00
8:35 AM,39.0,32.4,77,30.35,10.0,SSE,4.6,-,N/A,,Clear,150,2013-11-08 14:35:00
8:55 AM,41.2,33.6,74,30.35,10.0,SSE,5.8,-,N/A,,Clear,150,2013-11-08 14:55:00
9:15 AM,43.5,33.1,67,30.34,10.0,SE,9.2,-,N/A,,Clear,140,2013-11-08 15:15:00
9:35 AM,44.6,33.8,66,30.33,10.0,SSE,6.9,-,N/A,,Clear,150,2013-11-08 15:35:00
9:55 AM,45.3,33.6,64,30.33,10.0,SSE,9.2,-,N/A,,Clear,150,2013-11-08 15:55:00
10:15 AM,45.9,33.6,62,30.32,10.0,SE,10.4,-,N/A,,Clear,140,2013-11-08 16:15:00
10:35 AM,46.0,32.9,60,30.31,10.0,SE,9.2,-,N/A,,Clear,140,2013-11-08 16:35:00
10:55 AM,46.4,33.6,61,30.30,10.0,SSE,10.4,-,N/A,,Clear,150,2013-11-08 16:55:00
11:15 AM,47.3,33.4,59,30.28,10.0,SSE,11.5,-,N/A,,Clear,150,2013-11-08 17:15:00
11:35 AM,47.7,32.0,55,30.27,10.0,SSE,11.5,-,N/A,,Clear,160,2013-11-08 17:35:00
11:55 AM,48.6,32.2,53,30.25,10.0,SSE,11.5,-,N/A,,Clear,150,2013-11-08 17:55:00
12:15 PM,50.5,31.8,49,30.23,10.0,SSE,13.8,17.3,N/A,,Clear,150,2013-11-08 18:15:00
12:35 PM,52.7,30.4,42,30.22,10.0,SSE,16.1,-,N/A,,Clear,150,2013-11-08 18:35:00
12:55 PM,52.3,30.2,43,30.20,10.0,SSE,15.0,-,N/A,,Clear,150,2013-11-08 18:55:00
1:15 PM,55.2,30.4,39,30.18,10.0,SE,12.7,19.6,N/A,,Clear,130,2013-11-08 19:15:00
1:35 PM,55.0,28.0,35,30.18,10.0,South,10.4,13.8,N/A,,Clear,180,2013-11-08 19:35:00
1:55 PM,55.9,31.1,39,30.16,10.0,SSE,10.4,19.6,N/A,,Clear,160,2013-11-08 19:55:00
2:15 PM,55.8,31.5,40,30.15,10.0,SSE,13.8,-,N/A,,Clear,150,2013-11-08 20:15:00
2:35 PM,55.4,29.7,37,30.13,10.0,SE,12.7,-,N/A,,Clear,140,2013-11-08 20:35:00
2:55 PM,55.6,28.8,36,30.12,10.0,SE,16.1,19.6,N/A,,Clear,140,2013-11-08 20:55:00
3:15 PM,54.9,28.0,36,30.11,10.0,SSE,11.5,-,N/A,,Clear,150,2013-11-08 21:15:00
3:35 PM,54.5,27.7,36,30.10,10.0,SSE,17.3,21.9,N/A,,Clear,150,2013-11-08 21:35:00
3:55 PM,54.0,28.4,37,30.09,10.0,SSE,13.8,19.6,N/A,,Clear,150,2013-11-08 21:55:00
4:15 PM,54.0,28.9,38,30.08,10.0,SSE,13.8,19.6,N/A,,Clear,160,2013-11-08 22:15:00
4:35 PM,53.6,28.6,38,30.07,10.0,SSE,16.1,21.9,N/A,,Clear,150,2013-11-08 22:35:00
4:55 PM,52.3,29.7,42,30.06,10.0,SSE,12.7,-,N/A,,Clear,150,2013-11-08 22:55:00
5:15 PM,51.8,30.4,44,30.05,10.0,SSE,13.8,-,N/A,,Clear,150,2013-11-08 23:15:00
5:35 PM,50.9,30.9,46,30.04,10.0,SE,13.8,-,N/A,,Clear,140,2013-11-08 23:35:00
5:55 PM,50.0,32.0,50,30.03,10.0,SSE,13.8,-,N/A,,Clear,150,2013-11-08 23:55:00
6:15 PM,49.3,32.4,52,30.03,10.0,SSE,13.8,-,N/A,,Clear,150,2013-11-09 00:15:00
6:35 PM,49.3,32.4,52,30.04,10.0,SSE,11.5,-,N/A,,Clear,150,2013-11-09 00:35:00
6:55 PM,48.9,32.4,53,30.04,10.0,SSE,11.5,-,N/A,,Clear,160,2013-11-09 00:55:00
7:15 PM,50.2,32.0,50,30.03,10.0,SSE,12.7,16.1,N/A,,Clear,160,2013-11-09 01:15:00
7:35 PM,51.1,32.0,48,30.03,10.0,South,13.8,21.9,N/A,,Clear,170,2013-11-09 01:35:00
7:55 PM,52.2,31.8,46,30.02,10.0,South,16.1,24.2,N/A,,Clear,170,2013-11-09 01:55:00
8:15 PM,53.2,31.6,44,30.02,10.0,South,19.6,29.9,N/A,,Clear,170,2013-11-09 02:15:00
8:35 PM,52.9,32.0,45,30.02,10.0,South,20.7,28.8,N/A,,Clear,170,2013-11-09 02:35:00
8:55 PM,52.5,32.0,46,30.02,10.0,South,19.6,27.6,N/A,,Clear,180,2013-11-09 02:55:00
9:15 PM,52.0,32.2,47,30.03,10.0,South,19.6,25.3,N/A,,Clear,180,2013-11-09 03:15:00
9:35 PM,51.8,32.7,48,30.03,10.0,South,15.0,25.3,N/A,,Clear,190,2013-11-09 03:35:00
9:55 PM,51.1,32.9,50,30.03,10.0,South,16.1,21.9,N/A,,Clear,190,2013-11-09 03:55:00
10:15 PM,50.5,33.3,52,30.02,10.0,South,13.8,21.9,N/A,,Clear,180,2013-11-09 04:15:00
10:35 PM,50.4,33.8,53,30.02,10.0,South,15.0,24.2,N/A,,Clear,190,2013-11-09 04:35:00
10:55 PM,50.4,33.8,53,30.01,10.0,South,16.1,23.0,N/A,,Clear,180,2013-11-09 04:55:00
11:15 PM,50.2,34.2,54,30.02,10.0,SSW,15.0,19.6,N/A,,Clear,200,2013-11-09 05:15:00
11:35 PM,50.0,34.7,56,30.02,10.0,South,13.8,18.4,N/A,,Clear,190,2013-11-09 05:35:00
11:55 PM,49.5,34.9,57,30.02,10.0,South,11.5,16.1,N/A,,Clear,190,2013-11-09 05:55:00